Zurück zum Katalog

DMSP 5D-2 F13 DEB

AktivSSO
NORAD 40611·DEBRIS·🇺🇸 United States

Gestartet Mar 24, 1995 von Vandenberg Space Force Base

Loading…

Nächste Überflüge (nächste 24 Stunden)

TLE

AktuellSource: Space-Track

Epoche: Sep 13, 2026, 13:17 UTC

1 40611U 95015FJ  26256.55403992  .00002831  00000-0  93940-3 0  9992
2 40611  98.7672 296.2092 0026838 224.7475 135.1546 14.38402519591176

Verfolge DMSP 5D-2 F13 DEB in Echtzeit mit AllMySat

Download on the App Store